Location: Palo Alto
(37.4420°N, 122.1420°W)
Time: 14:16:19
(UTC-08:00)

Daily predictions for brighter satellites

Satellite Brightness Start Highest point End
(mag) Time Altitude Azimuth Time Altitude Azimuth Time Altitude Azimuth
Cosmos 2278 Rocket 2.7 17:08:56 10° SSW 17:14:31 64° WNW 17:20:09 10° NNE
Okean 1 3.3 17:11:38 10° S 17:15:39 70° E 17:19:42 10° NNE
Genesis I 3.1 17:11:43 10° NNW 17:15:39 77° ENE 17:19:31 10° SE
Cosmos 1346 Rocket 2.9 17:14:54 10° S 17:18:41 52° E 17:22:28 10° NNE
Cosmos 1536 Rocket 3.7 17:17:51 10° S 17:22:18 88° W 17:26:49 10° N
IDEFIX/ARIANE 42P 2.6 17:18:57 10° SSE 17:24:00 56° ENE 17:29:04 10° N
Cosmos 1238 Rocket 3.3 17:21:33 10° SSW 17:24:24 46° W 17:27:30 10° N
Thor Agena Rocket 3.6 17:21:53 10° NNE 17:27:07 70° ESE 17:32:22 10° S
NOSS 2-1 (E) 3.3 17:27:08 10° SSW 17:30:56 66° ESE 17:35:08 10° NE
YAOGAN 1 2.6 17:28:12 10° SSE 17:32:26 59° ENE 17:36:43 10° N
Cosmos 1833 Rocket 3.0 17:27:17 10° N 17:32:38 43° ENE 17:37:56 10° SE
Cosmos 1500 3.1 17:31:48 10° N 17:35:38 73° E 17:39:29 10° SSE
Cosmos 1743 3.3 17:34:55 10° NNE 17:38:28 34° ENE 17:41:59 10° SE
Timation 2 Rocket 4.2 17:31:53 10° NNW 17:38:44 67° ENE 17:45:34 10° SSE
PAYLOAD A 4.4 17:34:54 10° S 17:39:42 65° W 17:44:43 10° NNW
Cosmos 2082 Rocket 2.2 17:36:40 10° NNW 17:42:17 61° ENE 17:47:54 10° SE
CZ-2C R/B 2.5 17:39:14 10° SSE 17:44:15 90° W 17:49:26 10° NNW
GRACE-2 4.1 17:46:59 10° SSE 17:49:38 45° E 17:52:19 10° NNE
GRACE-1 4.1 17:47:23 10° SSE 17:50:04 46° E 17:52:45 10° N
USA 234 3.4 17:43:56 10° NE 17:50:28 73° NW 17:56:57 10° SW
Timation 1 Rocket 4.5 17:46:53 10° SSW 17:52:50 80° WNW 17:58:50 10° NNE
Cosmos 1484 Rocket 3.0 17:51:27 10° SE 17:55:00 42° ENE 17:58:31 10° N
Delta 2 Rocket 3.2 17:52:38 10° W 17:56:10 67° S 17:58:58 18° E
Nadezhda 3 Rocket 4.0 17:51:44 10° S 17:57:56 90° E 18:04:15 10° N
SKYMED 2 3.7 17:54:50 10° NNE 17:59:05 52° E 18:03:19 10° S
Meteor 1-19 Rocket 4.2 17:57:17 10° S 18:03:04 81° E 18:08:57 10° N
Cosmos 407 Rocket 4.2 18:00:20 10° N 18:04:47 29° ENE 18:09:14 10° ESE
Cosmos 2056 Rocket 3.6 17:59:58 10° S 18:05:13 61° ESE 18:10:05 12° NNE
NOSS 3-4 (A) 4.0 18:00:01 10° NNW 18:06:52 51° NE 18:14:05 10° SE
NOSS 3-4 (C) 4.0 18:00:06 10° NNW 18:06:57 51° NE 18:14:10 10° SE
SMAP 4.0 18:02:37 10° S 18:07:08 51° W 18:11:41 10° NNW
Intercosmos 25 2.9 18:04:06 10° N 18:07:16 84° E 18:11:02 10° S
Okean 2 4.0 18:03:42 10° SSE 18:07:30 36° E 18:09:32 22° NE
Cosmos 1892 Rocket 4.0 18:07:10 10° SSE 18:11:10 37° E 18:13:09 24° NE
Tiangong 1 2.2 18:09:33 10° WNW 18:12:14 28° N 18:12:41 26° NNE
Okean 1-7 Rocket 4.2 18:13:22 10° SSW 18:17:49 59° W 18:22:14 10° N
Cosmos 2369 Rocket 3.1 18:13:11 10° SSE 18:17:52 27° ESE 18:18:41 26° E
Cosmos 1624 Rocket 3.9 18:12:50 10° SSW 18:18:02 87° ESE 18:22:49 12° NNE
CZ-4 R/B 3.9 18:15:01 10° SSW 18:18:28 25° W 18:21:55 10° NW
Cosmos 1726 Rocket 3.9 18:15:05 10° N 18:19:20 42° E 18:23:34 10° SSE
Cosmos 1727 Rocket 4.4 18:14:02 10° SSE 18:19:37 36° E 18:23:21 19° NE
Meteor 2-9 Rocket 4.0 18:15:14 10° N 18:20:34 60° E 18:25:48 10° SSE
NOAA 12 4.3 18:16:25 10° SE 18:21:22 44° ENE 18:26:21 10° N
Meteor 1-15 Rocket 4.4 18:16:30 10° N 18:22:13 51° ENE 18:27:49 10° SSE
Cosmos 1371 Rocket 4.4 18:18:46 10° SSW 18:24:06 67° WNW 18:29:27 10° NNE
Meteor 1-23 Rocket 4.1 18:19:50 10° S 18:25:32 78° E 18:31:11 10° NNE
CZ-3B DEB 4.1 18:21:57 10° WNW 18:26:16 27° N 18:32:17 16° NE
Meteor 2-4 Rocket 3.6 18:21:16 10° S 18:26:39 87° WNW 18:32:01 10° N
Cosmos 1340 2.9 18:25:29 10° S 18:28:47 45° ESE 18:28:47 45° ESE
Meteor 2-8 Rocket 4.3 18:30:47 10° S 18:36:52 85° E 18:43:00 10° N
Cosmos 1606 Rocket 3.5 18:34:28 10° N 18:38:58 88° E 18:43:26 10° S
Orbus 7S? 4.3 18:36:48 10° SSW 18:38:12 23° S 18:38:12 23° S
Cosmos 1934 Rocket 4.0 18:36:34 10° N 18:42:50 87° W 18:49:09 10° S
Abrixas 4.4 18:41:23 10° WNW 18:43:57 27° SW 18:44:33 24° SSW
Cosmos 1943 Rocket 4.2 18:42:07 10° SSE 18:42:42 12° SE 18:42:42 12° SE
COSMO-SKYMED 1 3.8 18:43:00 10° N 18:47:05 41° WNW 18:51:10 10° SW
METEOR-M 4.0 18:43:17 10° SSE 18:48:34 68° ENE 18:53:53 10° N
Cosmos 1666 3.5 18:46:04 10° NNW 18:49:50 51° W 18:53:36 10° S
Cosmos 1025 Rocket 4.5 18:47:37 10° SSW 18:51:42 38° WNW 18:55:49 10° N
Cosmos 1452 Rocket 3.4 18:48:54 10° S 18:54:05 70° ESE 18:54:40 64° ENE
Cosmos 1339 Rocket 4.3 18:48:55 10° S 18:54:53 63° E 18:56:45 43° NNE
Cosmos 1190 Rocket 4.0 18:51:38 10° NNW 18:56:53 77° WSW 19:02:03 10° S
GEOS 3 Rocket 4.2 18:58:28 39° N 18:58:28 39° N 19:02:08 10° NNW
Cosmos 2058 Rocket 4.2 19:10:43 10° NNW 19:16:29 39° SSW 19:19:25 10° S
Gbstr 26 Del rocket 4.3 19:12:29 10° SW 19:20:32 67° SE 19:21:09 65° ESE
Cosmos 1153 Rocket 4.3 19:15:20 10° N 19:21:31 89° E 19:27:38 10° S
ATLAS 3B CENTAUR R/B 4.0 19:18:26 10° W 19:35:03 44° SSW 19:37:53 34° SSE
Cosmos 2369 Rocket 3.6 19:56:25 10° SW 20:00:33 35° W 20:00:33 35° W
FALCON 9 R/B 3.7 20:06:54 10° W 20:18:20 49° WSW 20:18:20 49° WSW
